Home   Weather   Brasilia   Past weeks
Flag for Brazil

Past Weather in Brasilia, Distrito Federal, Brazil — Yesterday and Last 2 Weeks

Now
68 °F

Clear.


Feels Like: 68 °F
Forecast: 86 / 67 °F
Wind: 2 mph from Southwest

Location: Brasilia Aeroporto

Current Time: Jan 22, 2019 at 6:39:55 am

Latest Report: Jan 22, 2019 at 5:00 am


Visibility: 10 mi

Pressure: 30.09 "Hg (26.50 "Hg at 1091m altitude)

Humidity: 73%

Dew Point: 59 °F

Location of BrasiliaLocation

Past Weather in Brasilia — Graph

°F

Brasilia Temperature Yesterday

Maximum temperature yesterday: 91 °F (at 4:00 pm)
Minimum temperature yesterday: 68 °F (at 5:00 am)
Average temperature yesterday: 79 °F

High & Low Weather Summary for the Past Weeks

 TemperatureHumidityPressure
High91 °F (Jan 21, 4:00 pm)100% (Jan 7, 5:00 am)30.21 "Hg (Jan 7, 5:00 am)
Low63 °F (Jan 15, 7:00 am)25% (Jan 10, 5:00 pm)29.86 "Hg (Jan 21, 3:00 am)
Average75 °F65%30.10 "Hg
* Reported Jan 7 5:00 am — Jan 22 5:00 am, Brasilia. Weather by CustomWeather, © 2019

Note: Actual official high and low records may vary slightly from our data, if they occured in-between our weather recording intervals... More about our weather records

Advertising

Brasilia Weather History for the Previous 24 Hours

Scroll right to see more
 ConditionsComfort  
Time TempWeatherWind HumidityBarometerVisibility
5:00 am
Tue, Jan 22
68 °FClear.2 mph73%30.09 "Hg10 mi
4:00 am70 °FClear.5 mph69%30.09 "Hg10 mi
3:00 am70 °FClear.2 mph69%30.12 "Hg10 mi
2:00 am70 °FClear.2 mph69%30.12 "Hg10 mi
1:00 am77 °FClear.5 mph54%30.15 "Hg10 mi
12:00 am73 °FClear.2 mph61%30.15 "Hg10 mi
11:00 pm
Mon, Jan 21
75 °FClear.2 mph57%30.15 "Hg10 mi
10:00 pm81 °FClear.8 mph45%30.12 "Hg10 mi
9:00 pm82 °FClear.10 mph42%30.09 "Hg10 mi
8:00 pm84 °FPassing clouds.9 mph35%30.09 "HgN/A
7:00 pm88 °FScattered clouds.13 mph31%30.07 "HgN/A
6:00 pm90 °FScattered clouds.12 mph29%30.07 "HgN/A
5:00 pm90 °FPartly sunny.8 mph27%30.07 "HgN/A
4:00 pm91 °FBroken clouds.10 mph28%30.09 "HgN/A
3:00 pm90 °FPartly sunny.6 mph31%30.09 "HgN/A
2:00 pm88 °FPartly sunny.7 mph33%30.12 "HgN/A
1:00 pm86 °FScattered clouds.10 mph40%30.15 "HgN/A
12:00 pm84 °FPassing clouds.7 mph43%30.15 "HgN/A
11:00 am82 °FPassing clouds.8 mph42%30.15 "HgN/A
10:00 am79 °FSunny.3 mph61%30.15 "Hg10 mi
9:00 am73 °FPassing clouds.3 mph69%30.12 "HgN/A
8:00 am70 °FSunny.10 mph73%30.12 "Hg10 mi
7:00 am68 °FSunny.3 mph78%30.09 "Hg10 mi
6:00 am68 °FClear.1 mph78%30.07 "Hg10 mi
Weather by CustomWeather, © 2019

See weather overview